Content
SEND FEEDBACK

Daily
Averages
Monthly
Summary
United States of America

LEXINGTON - YADKIN COLLEGE, NORTH CAROLINA


Home > North America > United States > North Carolina
Elevation: 64 feet     Latitude: 35 51N     Longitude: 080 23W

WEATHER
 
SELECT A DAY
Number of Records: 346,907;   Date Range: 5/10/00 - 10/22/14
 
SHARE

PRINT THIS DATA

[ ← Previous Day ]
WEATHER ALMANAC - FEBRUARY 13, 2013
[ Next Day → ]
[ °C ]   °F
Weather ElementAverageHighLow
Temperature43.1 °F47.1 °F (12:35 am)36.3 °F (11:55 pm)
Dewpoint41.9 °F45.5 °F (6:15 pm)32.5 °F (11:35 pm)
Humidity95.8 %100 % (2:15 am)61 % (12:55 am)
Barometer29.77 in29.92 in (12:35 am)29.64 in (3:15 pm)
Wind Speed1.6 mph8.1 mph (9:35 am)
Weather ElementAverage
Visibility6.8 mi
Wind DirectionENE (78.3 °)

Weather ElementTotal
Precipitation0.26 in
Heating Degree Days23.3 (Base 65)
Averaged from 71 records on February 13, 2013
WEATHER CONDITIONS BREAKOUT
WIND DIRECTION BREAKOUT
WEATHER BY HOUR - FEBRUARY 13, 2013
[ °C ]   °F
Local TimeTemperatureDewpointHumidityBarometerVisibilityWind DirectionWind SpeedGust SpeedPrecipitationEventsConditions
12:35 AM47.1 °F34.9 °F62 %29.92 in10.0 miCalmClear
12:55 AM46.8 °F33.8 °F61 %29.91 in10.0 miCalmRainLight Rain
1:15 AM45.7 °F36.9 °F71 %29.88 in10.0 miCalmRainLight Rain
1:35 AM43.5 °F39.4 °F85 %29.88 in10.0 miNNW (330°)3.5 mphLight Drizzle
1:55 AM43.0 °F41.4 °F94 %29.90 in7.0 miWNW (300°)3.5 mph0.01 inRainLight Rain
2:15 AM42.8 °F42.8 °F100 %29.89 in7.0 miCalm0.02 inRainRain
2:35 AM42.4 °F42.4 °F100 %29.87 in7.0 miCalm0.03 inRainLight Rain
2:55 AM42.4 °F42.4 °F100 %29.86 in7.0 miCalm0.04 inRainRain
3:15 AM42.3 °F42.3 °F100 %29.85 in4.0 miCalm0.02 inRainHeavy Rain
3:35 AM42.1 °F42.1 °F100 %29.83 in7.0 miCalm0.03 inRainLight Rain
3:55 AM42.3 °F42.3 °F100 %29.84 in7.0 miCalm0.04 inRainRain
4:15 AM42.3 °F42.3 °F100 %29.83 in5.0 miCalm0.01 inHeavy Drizzle
4:35 AM42.1 °F42.1 °F100 %29.83 in5.0 miNNE (20°)3.5 mph0.01 inRainRain
4:55 AM42.1 °F42.1 °F100 %29.83 in10.0 miCalm0.02 inLight Drizzle
5:15 AM42.1 °F42.1 °F100 %29.81 in10.0 miCalmScattered Clouds
5:35 AM42.1 °F42.1 °F100 %29.81 in10.0 miCalmMostly Cloudy
5:55 AM42.1 °F42.1 °F100 %29.82 in10.0 miCalmOvercast
6:15 AM42.1 °F42.1 °F100 %29.81 in10.0 miCalmMostly Cloudy
6:35 AM42.1 °F42.1 °F100 %29.79 in5.0 miCalmLight Drizzle
6:55 AM41.9 °F41.9 °F100 %29.81 in7.0 miCalmMostly Cloudy
7:15 AM42.1 °F42.1 °F100 %29.81 in7.0 miCalmMostly Cloudy
7:35 AM41.9 °F41.9 °F100 %29.80 in7.0 miCalmMostly Cloudy
7:55 AM42.1 °F42.1 °F100 %29.82 in7.0 miCalmScattered Clouds
8:15 AM42.3 °F42.3 °F100 %29.79 in7.0 miEast (90°)4.6 mphMostly Cloudy
8:35 AM42.4 °F42.4 °F100 %29.81 in7.0 miCalmOvercast
8:55 AM42.6 °F42.6 °F100 %29.80 in10.0 miENE (70°)3.5 mphOvercast
9:15 AM42.6 °F42.6 °F100 %29.79 in10.0 miENE (70°)3.5 mphOvercast
9:35 AM42.8 °F42.8 °F100 %29.77 in5.0 miEast (80°)8.1 mphOvercast
9:55 AM42.8 °F42.8 °F100 %29.78 in7.0 miEast (90°)5.8 mphOvercast
10:15 AM42.8 °F42.8 °F100 %29.78 in4.0 miESE (110°)5.8 mphOvercast
10:35 AM43.0 °F43.0 °F100 %29.78 in1.5 miCalmDrizzle
10:55 AM42.8 °F42.8 °F100 %29.76 in2.5 miEast (100°)3.5 mphRainLight Rain
11:15 AM43.0 °F43.0 °F100 %29.76 in4.0 miCalmOvercast
11:35 AM43.3 °F43.3 °F100 %29.74 in2.5 miCalmOvercast
11:55 AM43.3 °F43.3 °F100 %29.73 in1.8 miCalmOvercast
12:15 PM43.2 °F43.2 °F100 %29.72 in1.5 miCalmOvercast
12:35 PM43.2 °F43.2 °F100 %29.69 in1.5 miCalmOvercast
12:55 PM43.3 °F43.3 °F100 %29.69 in1.8 miCalmOvercast
1:15 PM43.5 °F43.5 °F100 %29.67 in1.8 miCalmOvercast
1:35 PM43.9 °F43.9 °F100 %29.65 in3.0 miCalmOvercast
1:55 PM43.9 °F43.9 °F100 %29.66 in4.0 miCalmOvercast
2:15 PM43.9 °F43.9 °F100 %29.66 in1.8 miSSW (200°)3.5 mphOvercast
2:35 PM43.9 °F43.9 °F100 %29.65 in1.5 miCalmOvercast
2:55 PM43.9 °F43.9 °F100 %29.66 in1.8 miCalmDrizzle
3:15 PM44.1 °F44.1 °F100 %29.64 in1.8 miCalmLight Drizzle
3:35 PM44.1 °F44.1 °F100 %29.66 in2.0 miSSW (200°)3.5 mphOvercast
3:55 PM44.6 °F44.6 °F100 %29.65 in3.0 miCalmOvercast
4:15 PM44.6 °F44.6 °F100 %29.66 in3.0 miCalmOvercast
4:35 PM44.8 °F44.8 °F100 %29.66 in3.0 miWSW (240°)3.5 mphOvercast
4:55 PM45.0 °F45.0 °F100 %29.66 in2.5 miWSW (250°)3.5 mphOvercast
5:15 PM45.0 °F45.0 °F100 %29.67 in5.0 miWest (260°)3.5 mph0.01 inOvercast
5:35 PM45.0 °F45.0 °F100 %29.68 in10.0 miCalm0.01 inOvercast
5:55 PM45.1 °F45.1 °F100 %29.68 in10.0 miWSW (250°)3.5 mph0.01 inOvercast
6:15 PM45.5 °F45.5 °F100 %29.69 in10.0 miWSW (240°)3.5 mphOvercast
6:35 PM45.5 °F45.5 °F100 %29.70 in10.0 miWSW (250°)3.5 mphMostly Cloudy
6:55 PM45.5 °F45.5 °F100 %29.72 in10.0 miWSW (240°)3.5 mphMostly Cloudy
7:15 PM45.5 °F45.5 °F100 %29.73 in10.0 miWSW (240°)4.6 mphMostly Cloudy
7:35 PM45.5 °F45.5 °F100 %29.74 in10.0 miWSW (240°)5.8 mphScattered Clouds
7:55 PM45.1 °F45.1 °F100 %29.75 in10.0 miWSW (250°)4.6 mphScattered Clouds
8:15 PM45.0 °F45.0 °F100 %29.76 in10.0 miCalmScattered Clouds
8:35 PM45.1 °F45.1 °F100 %29.76 in10.0 miWest (260°)4.6 mphMostly Cloudy
8:55 PM44.8 °F43.0 °F93 %29.78 in10.0 miWNW (300°)4.6 mphScattered Clouds
9:15 PM43.7 °F38.5 °F82 %29.78 in10.0 miWNW (300°)4.6 mphClear
9:35 PM42.4 °F36.7 °F80 %29.79 in10.0 miWNW (290°)3.5 mphClear
9:55 PM41.5 °F35.4 °F79 %29.80 in10.0 miWNW (290°)4.6 mphClear
10:15 PM41.0 °F34.7 °F78 %29.81 in10.0 miCalmClear
10:35 PM39.6 °F34.7 °F83 %29.82 in10.0 miCalmClear
10:55 PM39.0 °F33.8 °F82 %29.83 in10.0 miCalmClear
11:15 PM38.1 °F33.6 °F84 %29.84 in10.0 miCalmClear
11:35 PM38.7 °F32.5 °F79 %29.85 in10.0 miCalmClear
11:55 PM36.3 °F33.3 °F89 %29.86 in10.0 miCalmClear
Hourly data recorded from KEXX, located miles away from Lexington - Yadkin College, North Carolina







STORIES FROM OUR PARTNERS